RH
80 84 86 86 86 90 91 91 90 90 89 88 89 90 91 92 89 75 30 22 34 72 54 23 28 22 26 40 39 35 50 52 50 43 33 19 20 16 17 32 30 32 40 39 42
85 81 82 85 88 89 91 92 91 92 91 91 90 90 91 92 66 35 31 60 66 74 16 20 20 24 37 41 37 40 47 37 35 34 34 26 22 22 17 30 40 40 38 37 55
88 88 87 87 85 88 89 90 91 91 91 90 88 88 91 89 39 17 66 68 78 57 15 14 15 23 35 38 31 29 31 20 17 20 26 28 24 12 10 36 42 48 44 40 55
89 89 88 86 86 88 89 89 90 90 91 90 88 88 91 71 10 18 64 76 79 34 19 17 19 26 31 30 21 22 16 16 12 10 12 18 9 9 10 9 35 39 40 40 46
90 90 89 89 89 89 89 90 90 90 91 89 88 88 82 43 18 29 64 64 37 26 23 23 36 37 31 23 18 20 15 12 11 11 10 9 10 11 10 8 34 36 39 42 42
91 92 91 90 90 90 90 90 90 90 89 87 86 89 52 24 11 37 30 33 25 27 30 26 30 27 21 20 18 15 12 10 10 10 10 10 9 11 8 8 35 39 42 42 42
92 91 92 93 92 90 90 90 90 90 87 87 85 66 43 23 13 30 26 21 18 23 26 21 22 15 13 13 12 11 11 10 8 10 10 10 10 10 8 8 24 39 41 42 43
90 89 90 91 92 91 90 90 89 86 86 85 84 71 29 16 17 20 24 24 20 18 19 18 20 12 11 12 12 13 15 16 10 8 8 10 14 10 9 10 36 39 40 43 44
88 88 89 90 91 91 90 90 86 82 81 81 70 58 31 23 8 6 13 12 11 18 18 11 17 12 12 18 21 20 19 16 12 8 10 12 14 10 10 10 16 42 42 42 44
88 88 90 90 90 90 89 88 78 78 66 48 33 38 23 15 8 7 7 6 7 9 10 11 14 15 20 23 28 21 20 17 15 10 11 11 11 10 11 11 10 22 42 42 43
89 90 90 91 90 87 94 43 23 22 28 34 28 23 16 8 7 8 8 9 10 11 16 14 14 16 14 18 16 18 18 18 14 11 14 12 13 11 11 12 11 11 34 43 42
89 89 90 90 87 89 90 21 22 18 24 15 14 13 11 9 8 8 7 9 12 12 17 15 16 12 12 13 18 19 20 17 13 10 11 11 11 11 12 12 11 11 12 28 40
88 89 90 91 90 58 42 22 19 18 25 16 13 11 8 7 8 8 8 10 11 14 14 16 12 10 11 11 12 13 15 14 12 12 10 14 14 12 9 10 10 12 13 14 18
87 89 91 93 44 59 37 20 19 18 34 21 16 8 7 8 9 6 7 8 12 13 11 14 10 11 12 13 14 19 11 11 11 13 16 13 17 14 14 15 26 46 51 60 62
86 88 91 94 72 45 28 33 26 22 34 16 11 8 8 8 10 8 7 10 11 10 16 14 13 13 14 14 12 14 12 13 14 18 18 14 18 22 39 51 46 47 51 59 70
86 88 88 82 85 51 44 33 24 32 33 13 8 10 11 9 8 10 11 10 11 14 14 14 13 14 15 12 14 14 16 20 23 25 29 19 20 46 62 56 47 46 54 61 70
86 87 92 68 27 36 33 30 34 32 17 13 14 12 12 11 10 9 10 13 14 20 22 18 20 15 12 16 15 17 23 32 35 34 32 22 28 60 49 47 47 51 57 67 71
86 92 88 67 67 42 35 33 38 23 16 14 13 13 15 13 12 10 13 12 16 21 29 28 25 17 14 20 20 21 31 34 40 41 32 28 33 50 38 43 43 47 44 66 79
90 72 59 47 54 43 35 40 34 21 15 14 13 16 18 14 13 13 15 15 19 22 26 29 26 17 15 16 19 20 25 25 38 56 43 40 36 41 41 41 45 47 56 61 84
94 78 58 32 38 32 35 46 27 16 16 16 20 20 24 20 19 19 19 18 18 17 22 30 31 26 19 17 18 21 20 35 47 54 59 44 43 59 43 49 55 52 60 77 78
74 52 31 26 23 30 36 35 22 14 15 19 23 23 22 24 23 24 23 18 16 18 22 45 35 29 24 27 26 26 28 43 44 50 53 64 48 50 53 59 63 66 72 82 79
81 52 32 25 30 43 37 28 30 17 13 16 21 24 24 24 28 27 26 23 16 19 27 29 36 44 30 23 22 23 36 47 52 48 50 51 46 52 57 64 65 75 81 82 78
90 74 37 25 35 35 31 26 22 22 18 20 20 19 23 27 32 27 24 18 18 22 30 36 41 48 45 36 28 35 28 35 48 62 56 67 60 52 73 78 72 77 88 80 91
85 70 47 42 42 52 42 35 29 21 18 18 19 22 23 28 31 31 27 21 21 22 60 43 46 45 48 39 37 33 26 27 36 50 47 58 57 68 81 87 89 90 88 88 89
91 74 52 56 51 49 54 38 31 29 23 23 22 22 27 36 35 36 31 31 25 49 32 31 40 44 37 33 28 27 28 38 55 65 74 72 74 82 88 90 94 94 91 77 80
74 80 68 65 56 49 58 42 35 29 30 25 30 21 23 33 36 34 34 40 36 31 39 38 38 52 42 29 29 33 46 50 55 59 69 72 82 80 79 76 81 91 83 88 93
82 74 76 72 60 58 53 42 34 31 26 23 24 27 26 26 22 24 26 27 29 32 32 39 42 48 44 33 37 52 61 54 68 73 84 89 79 80 78 76 90 92 93 92 92
Wind_Speed
19 20 20 20 21 19 20 20 20 20 19 18 17 16 15 14 16 3 7 12 8 8 4 5 4 5 3 4 5 3 1 4 7 9 12 18 17 13 5 5 4 8 11 16 24
17 16 17 18 18 18 19 19 20 19 19 18 17 16 13 12 4 9 11 9 10 13 4 5 4 5 2 5 3 5 4 8 7 11 9 19 18 19 1 6 1 8 12 24 21
17 18 18 18 20 19 19 19 20 19 18 18 17 16 13 8 4 8 5 11 10 11 1 1 4 1 5 2 5 4 6 12 14 15 17 16 11 9 1 5 7 20 27 24 21
18 19 20 20 21 21 20 20 20 19 18 17 16 14 11 2 3 2 7 8 9 6 1 2 2 3 3 4 6 3 9 8 8 5 3 6 6 10 4 7 15 26 29 27 25
19 20 20 21 21 22 22 21 20 19 17 16 13 11 3 1 11 4 8 8 6 5 4 4 1 2 4 4 8 3 6 8 10 10 11 11 13 8 15 16 17 21 27 27 24
20 21 22 22 22 22 22 22 20 19 17 15 10 5 1 3 6 9 8 6 5 4 3 5 6 3 5 4 3 5 8 10 11 14 11 8 14 4 23 15 19 25 26 24 27
23 24 24 24 25 24 23 23 22 19 16 11 6 3 0 13 3 8 8 7 7 6 4 6 3 2 4 8 5 7 8 12 16 8 9 6 14 11 19 16 20 25 24 23 22
25 26 27 26 26 26 25 24 22 18 11 6 5 2 8 7 4 7 6 5 4 6 6 9 4 4 3 3 8 7 4 5 10 12 11 5 12 20 16 3 15 22 22 23 24
22 24 26 27 26 27 25 26 20 7 3 9 3 2 10 10 2 8 9 9 3 5 5 10 2 3 6 3 6 4 6 6 12 11 8 6 9 12 10 7 4 18 21 22 22
22 24 25 27 26 27 27 20 2 9 3 4 5 3 6 2 4 3 5 6 5 3 4 5 5 2 4 5 5 6 4 6 9 16 7 12 8 8 8 7 10 8 21 23 24
23 24 26 28 28 24 15 3 8 6 1 6 3 4 12 7 1 2 1 1 1 3 1 3 2 8 13 11 14 6 8 14 18 17 3 12 10 12 9 5 8 10 14 22 24
24 25 26 29 29 24 1 6 4 7 10 9 16 10 15 6 4 4 5 4 3 5 1 5 6 15 9 11 11 12 11 12 9 6 4 7 8 9 7 7 8 8 11 15 23
23 24 26 31 32 4 4 4 5 5 2 9 6 5 7 8 5 5 9 5 5 4 5 7 13 7 10 13 12 9 6 6 6 4 6 2 10 8 15 12 9 15 10 12 12
22 23 24 33 5 6 6 9 8 5 5 7 2 6 4 4 5 5 10 5 2 3 5 5 6 5 9 7 2 5 5 4 7 8 7 4 7 8 11 12 16 23 20 20 22
24 22 20 12 5 4 6 9 8 6 4 3 3 2 1 6 2 4 4 3 6 6 2 10 7 13 12 7 7 7 5 5 3 3 4 9 4 7 11 13 20 15 19 19 22
26 23 20 1 2 10 8 10 5 6 1 2 3 2 2 3 5 1 1 3 1 2 2 7 4 4 4 6 3 6 6 7 6 4 5 8 5 4 5 6 9 9 12 17 21
27 27 12 3 5 3 6 5 6 5 7 6 2 4 3 4 3 5 5 3 3 2 5 7 1 4 12 10 10 12 9 7 7 6 7 7 4 6 7 6 5 6 4 11 12
30 28 6 6 6 5 5 6 5 4 4 2 6 7 1 2 3 3 2 4 5 3 4 3 8 8 8 3 5 7 4 5 5 4 7 6 2 6 8 6 3 5 5 7 8
27 4 3 6 6 3 7 5 4 3 3 5 9 6 7 9 5 7 5 5 6 3 5 3 5 6 7 8 2 9 6 5 2 2 4 4 7 4 3 5 9 12 12 11 5
5 6 5 6 8 6 6 4 4 3 2 5 5 4 6 7 9 6 4 3 4 4 3 2 4 3 6 7 3 6 6 6 5 3 4 6 6 6 9 7 8 11 10 6 7
3 5 7 5 6 6 2 6 5 6 3 3 0 3 4 1 3 6 4 5 3 2 7 3 4 7 6 3 7 9 7 3 2 4 4 4 7 8 2 4 5 8 8 5 5
3 4 5 4 4 1 1 4 8 9 4 2 1 2 4 5 4 3 3 2 4 2 4 4 5 2 7 10 3 6 3 4 4 9 4 4 8 7 6 1 3 4 4 2 3
3 5 7 6 1 3 7 6 4 10 8 3 2 3 2 3 4 5 6 8 8 3 4 1 2 4 10 9 6 1 5 4 4 2 6 3 7 3 3 5 7 6 7 5 4
3 5 6 6 2 3 6 5 9 6 5 7 5 2 4 5 1 4 5 4 7 5 8 7 2 6 6 8 4 8 17 19 9 1 5 5 6 6 8 8 8 9 7 4 3
1 5 3 4 6 6 2 3 5 7 2 3 6 4 4 3 6 6 6 7 6 5 5 5 3 3 5 7 7 12 17 7 3 4 3 7 5 5 5 5 5 5 6 6 6
1 2 6 4 4 6 4 3 4 8 4 14 1 5 6 5 1 3 3 2 6 6 2 2 3 2 5 9 12 15 4 2 2 2 5 4 6 1 3 4 6 5 6 6 8
3 4 4 5 4 3 2 6 13 8 9 3 4 4 6 5 4 5 5 6 8 5 5 1 2 1 6 8 9 6 2 3 3 3 4 3 6 5 5 4 3 7 7 9 8
Wind_Direction
350 344 341 338 335 328 326 325 324 323 324 325 325 322 324 319 307 176 242 221 184 171 155 136 170 188 168 256 209 81 84 260 213 166 228 281 304 283 200 140 225 186 152 159 145
342 341 332 327 326 324 320 319 318 316 318 321 322 323 323 325 296 253 242 225 206 148 158 181 216 159 211 227 223 133 133 242 209 216 235 253 268 285 99 155 10 84 115 148 134
335 330 327 326 326 321 317 315 312 312 314 317 320 322 321 317 313 252 338 207 157 167 225 237 252 189 213 236 236 207 223 269 282 235 237 257 276 261 351 194 196 149 149 156 145
333 330 329 327 324 319 315 313 310 310 310 313 318 317 317 257 272 342 56 84 130 156 107 226 259 185 242 263 280 268 264 254 268 276 234 229 240 309 297 257 153 155 162 161 163
331 329 327 325 320 316 314 311 308 307 307 310 313 313 293 45 251 184 123 111 107 134 204 186 240 205 244 268 332 288 286 300 303 309 312 322 310 289 294 295 151 159 166 172 172
330 328 326 324 320 317 314 310 306 302 303 303 300 303 187 259 251 148 141 127 143 181 208 194 225 240 256 272 312 274 309 315 311 306 306 329 292 45 284 279 157 167 176 176 177
336 334 329 324 320 320 315 310 305 302 299 289 265 231 236 243 295 149 171 195 182 173 203 242 235 31 322 327 324 326 356 321 292 285 295 292 301 286 272 272 180 177 179 179 184
337 335 331 326 321 319 316 310 305 299 283 246 196 219 245 256 169 197 194 292 247 197 215 250 263 256 201 280 357 354 15 331 289 297 269 118 275 283 295 230 168 174 176 180 188
336 332 326 322 322 319 318 312 309 282 175 150 128 174 273 305 254 230 160 216 191 237 241 263 238 225 342 45 357 350 250 253 302 300 285 148 257 277 311 341 191 182 184 186 193
329 327 326 323 324 323 324 309 220 109 158 198 252 319 266 284 207 191 200 209 233 268 352 197 44 352 8 78 245 243 236 274 277 290 307 313 273 285 291 321 298 179 189 193 193
331 329 329 324 324 326 337 24 16 355 18 216 216 275 284 292 186 256 224 206 81 30 230 302 76 250 243 206 231 235 256 265 279 281 14 300 292 294 290 306 289 284 180 202 199
331 330 331 325 324 323 241 65 181 218 306 253 250 249 257 266 297 274 126 148 133 228 65 356 261 253 253 249 230 246 253 267 276 262 10 322 306 308 304 280 273 257 273 194 208
331 331 332 324 322 352 297 325 305 73 355 296 230 217 235 142 243 291 148 159 186 218 226 185 245 287 252 265 251 245 217 234 237 305 322 14 324 318 305 317 324 347 310 305 193
332 332 334 330 37 331 300 315 338 98 51 283 226 265 184 130 293 229 188 159 344 269 287 230 264 320 331 308 298 315 262 307 331 16 298 79 280 307 342 346 27 5 20 12 360
329 330 331 326 287 320 261 330 324 60 57 183 222 222 140 146 241 253 182 79 205 239 75 255 325 318 313 306 336 258 348 332 273 296 35 311 49 317 26 345 351 355 359 25 21
324 323 333 159 253 242 315 308 56 45 335 220 148 220 40 260 260 49 201 40 255 302 260 238 311 56 295 322 353 290 19 21 32 78 23 270 128 330 354 280 325 1 15 25 43
321 316 313 261 240 330 332 33 40 93 329 347 16 5 272 283 290 184 201 165 183 85 311 338 293 330 26 359 349 14 33 341 352 3 241 288 40 218 235 274 303 339 32 52 41
321 313 212 217 253 5 30 52 69 276 347 349 341 332 298 263 283 24 2 313 52 109 79 78 334 13 359 37 260 280 132 168 287 238 278 307 207 239 209 203 306 11 58 61 40
318 321 279 254 206 112 62 61 203 329 1 5 345 7 345 355 15 29 350 14 34 37 115 60 288 326 24 337 52 322 1 216 152 354 32 274 304 333 266 146 15 8 12 21 28
329 341 278 262 126 60 70 245 276 334 63 37 49 51 6 327 21 358 14 354 89 44 78 349 327 317 323 3 8 120 259 5 1 348 310 301 287 249 313 352 358 359 353 7 351
8 2 261 103 76 51 132 243 289 277 116 80 203 305 279 275 4 339 347 358 56 19 93 121 104 290 23 2 306 329 344 7 123 149 199 279 275 225 262 37 339 339 340 358 352
14 343 278 45 41 68 214 226 304 273 27 354 239 275 343 340 334 5 321 230 330 202 165 209 146 233 248 283 221 178 330 89 119 291 235 192 269 41 28 52 225 277 326 310 10
359 269 299 105 217 326 306 308 305 7 315 92 347 79 109 352 3 342 338 307 341 111 150 224 348 356 346 350 343 41 326 277 186 110 228 182 269 56 27 349 311 329 11 351 9
18 346 319 35 103 47 1 323 335 335 328 22 304 353 357 341 228 269 310 354 26 61 71 82 96 148 194 220 227 306 313 310 296 175 289 229 279 316 354 335 327 343 342 330 333
96 261 224 313 331 335 341 273 318 328 314 19 322 336 309 324 2 12 354 340 343 67 38 93 202 252 255 264 284 289 289 324 52 260 153 262 257 290 322 330 334 349 355 325 312
216 30 339 275 306 4 13 307 331 313 269 294 106 348 33 98 136 309 23 343 257 323 99 17 246 282 274 288 285 291 351 57 328 328 269 287 276 289 304 318 323 335 330 328 311
310 337 105 282 337 36 269 338 317 329 306 159 143 111 4 192 170 211 198 231 225 226 276 212 208 85 265 275 296 294 239 302 202 209 224 252 249 299 281 311 321 342 341 330 340